This demonstration page uses our WeatherBlox Daily Observations layout. Learn more.

Left ArrowRight Arrow

Hourly Observations for January 22, 2016

Temp ( °F °C ) Dew Point ( °F °C ) Humidity (%) Winds ( mph kmh ) Pressure ( in mb ) Visibility ( mi km ) Precip ( " mm )
12:59 am 00:59 Mostly Clear 30 -1.1 17 -8.3 58 58 N 9 15 30.30 1026 10 16 0.00 0.00
1:59 am 01:59 Mostly Clear 30 -1.1 18 -7.8 61 61 NNW 10 17 30.30 1026 10 16 0.00 0.00
2:59 am 02:59 Mostly Clear 30 -1.1 19 -7.2 64 64 N 8 13 30.28 1026 10 16 0.00 0.00
3:59 am 03:59 Partly Cloudy 30 -1.1 21 -6.1 69 69 N 7 11 30.28 1025 10 16 0.00 0.00
4:59 am 04:59 Partly Cloudy 32 0 19 -7.2 59 59 NE 10 17 30.27 1025 10 16 0.00 0.00
5:59 am 05:59 Partly Cloudy 32 0 17 -8.3 54 54 NE 12 19 30.29 1026 10 16 0.00 0.00
6:59 am 06:59 Mostly Cloudy 32 0 16 -8.9 52 52 NE 9 15 30.30 1026 10 16 0.00 0.00
7:59 am 07:59 Cloudy 33 0.6 16 -8.9 49 49 NE 8 13 30.30 1026 10 16 0.00 0.00
8:59 am 08:59 Cloudy 33 0.6 16 -8.9 49 49 NE 12 19 30.27 1025 10 16 0.00 0.00
9:59 am 09:59 Cloudy 34 1.1 19 -7.2 54 54 NE 14 22 30.24 1024 10 16 0.00 0.00
10:59 am 10:59 Cloudy with Light Rain/Snow 33 0.6 21 -6.1 61 61 NE 15 24 30.21 1023 6 10 0.00 0.03
11:25 am 11:25 Cloudy with Light Snow 33 0.6 22 -5.6 64 64 NE 15 24 30.21 1023 5 8 0.00 0.03
11:30 am 11:30 Cloudy with Light Snow 33 0.6 22 -5.6 64 64 NE 16 26 30.21 1023 2 3 0.00 0.03
11:59 am 11:59 Cloudy with Light Snow 31 -0.6 25 -3.9 79 79 NNE 16 26 30.19 1022 2 3 0.01 0.25
12:08 pm 12:08 Cloudy with Light Snow 31 -0.6 25 -3.9 79 79 NE 15 24 30.18 1022 2 2 0.00 0.03
12:22 pm 12:22 Cloudy with Light Snow 30 -1.1 26 -3.3 85 85 NE 17 28 30.15 1021 2 2 0.02 0.51
12:27 pm 12:27 Windy with Snow Likely 30 -1.1 26 -3.3 85 85 NE 22 35 30.15 1021 1 2 0.02 0.51
12:42 pm 12:42 Cloudy with Light Snow 30 -1.1 26 -3.3 85 85 NNE 16 26 30.15 1021 2 3 0.03 0.76
12:59 pm 12:59 Windy with Snow Likely 31 -0.6 26 -3.3 82 82 NE 20 31 30.12 1020 3 5 0.04 1.02
1:10 pm 13:10 Cloudy 31 -0.6 26 -3.3 82 82 NNE 15 24 30.15 1021 5 8 0.00 0.03
1:27 pm 13:27 Cloudy with Light Snow 31 -0.6 26 -3.3 82 82 NNE 18 30 30.12 1020 3 5 0.00 0.03
1:30 pm 13:30 Windy with Snow Likely 31 -0.6 27 -2.8 85 85 NE 20 31 30.12 1020 2 3 0.00 0.03
1:59 pm 13:59 Cloudy with Light Snow 31 -0.6 27 -2.8 85 85 NE 15 24 30.11 1020 2 3 0.03 0.76
2:22 pm 14:22 Cloudy with Light Snow 31 -0.6 27 -2.8 85 85 NE 18 30 30.09 1019 2 3 0.01 0.25
2:26 pm 14:26 Cloudy with Light Snow 31 -0.6 27 -2.8 85 85 NE 18 30 30.09 1019 2 2 0.01 0.25
2:59 pm 14:59 Cloudy with Light Snow 31 -0.6 27 -2.8 85 85 NE 16 26 30.05 1018 2 3 0.04 1.02
3:10 pm 15:10 Windy with Snow Likely 31 -0.6 27 -2.8 85 85 NE 22 35 30.03 1017 3 5 0.01 0.25
3:32 pm 15:32 Windy with Snow Likely 31 -0.6 27 -2.8 85 85 NE 22 35 30.03 1017 4 6 0.01 0.25
3:59 pm 15:59 Cloudy 31 -0.6 27 -2.8 85 85 NE 23 37 30.01 1016 9 14 0.01 0.25
4:46 pm 16:46 Cloudy 32 0 28 -2.2 85 85 NE 21 33 29.97 1015 7 11 0.01 0.25
4:54 pm 16:54 Cloudy with Mist and Fog 32 0 28 -2 87 87 NE 21 33 29.97 1015 5 8 0.01 0.25
4:59 pm 16:59 Cloudy with Light Freezing Rain 32 0 28 -2.2 85 85 NNE 22 35 29.97 1015 3 5 0.02 0.51
5:11 pm 17:11 Windy with Snow Likely 32 0 28 -2.2 85 85 NE 21 33 29.97 1015 4 6 0.01 0.25
5:29 pm 17:29 Cloudy with Light Freezing Rain 32 0 29 -1.7 88 88 NE 18 30 29.94 1014 4 6 0.04 1.02
5:59 pm 17:59 Cloudy with Light Freezing Rain 32 0 29 -1.7 88 88 NE 20 31 29.94 1014 6 10 0.06 1.52
6:59 pm 18:59 Cloudy with Light Rain 33 0.6 30 -1.1 89 89 NE 26 43 29.90 1012 3 5 0.01 0.25
7:59 pm 19:59 Cloudy with Light Rain 36 2.2 33 0.6 89 89 NE 22 35 29.83 1010 4 6 0.02 0.51
8:20 pm 20:20 Cloudy with Light Rain 36 2.2 34 1.1 93 93 NE 24 39 29.80 1009 4 6 0.04 1.02
8:59 pm 20:59 Cloudy with Light Rain 39 3.9 36 2.2 89 89 NE 22 35 29.74 1007 4 6 0.11 2.79
9:15 pm 21:15 Cloudy with Light Rain 39 3.9 37 2.8 93 93 NE 22 35 29.71 1006 3 4 0.04 1.02
9:59 pm 21:59 Cloudy with Light Rain 41 5 38 3.3 89 89 NE 24 39 29.68 1005 3 5 0.22 5.59
10:07 pm 22:07 Cloudy with Light Rain 41 5 38 3.3 89 89 NE 20 31 29.68 1005 3 4 0.03 0.76
10:32 pm 22:32 Cloudy with Light Rain 41 5 39 3.9 93 93 NE 23 37 29.62 1003 2 3 0.19 4.83
10:59 pm 22:59 Cloudy with Rain 42 5.6 39 3.9 89 89 NE 18 30 29.57 1001 2 3 0.36 9.14
11:41 pm 23:41 Cloudy with Rain 43 6.1 40 4.4 89 89 NE 26 43 29.47 998 2 2 0.32 8.13
11:59 pm 23:59 Cloudy with Rain 43 6.1 41 5 93 93 ENE 21 33 29.45 997 2 2 0.46 11.68

Powered by AerisWeather